Starlink 32171

operational
NORAD ID: 60332 Int'l Des: 2024-136 Owner: SPXS Country: US Constellation: starlink
LEOCIRCULAR

Starlink 32171について

説明を読み込み中...

リアルタイム位置

3D地球を読み込み中...

次回通過

高度履歴

Altitude vs Time

uPlot chart will show altitude changes over time

軌道要素

1 60332U 24136D 25353.25976192 .00003978 00000-0 14652-3 0 9997
2 60332 53.1603 89.0393 0001337 68.1320 291.9823 15.30164193 77359
Epoch: Dec 19, 2025 • Age: 11 hours

現在のステータス

高度 476.8 km
速度 7.63 km/s
衛星直下点 33.86°N, 127.33°E
打ち上げ日 Aug 2, 2024
運用期間 1.3 years
タイプ internet

技術仕様

分類 Payload
質量 730.00 kg
乾燥質量 700.00 kg
総質量 730.00 kg
長さ 0.30 m
直径 4.10 m
スパン 29.00 m
形状 Box + pan
製造者 SPXS
バスタイプ Starlink V2M
フェーズステータス In Orbit
所有者/国 SPXS/US

大規模コンステレーション

Loading constellations...